Location: Czekanka
(50.4925°N, 19.2643°E)
Time: 07:15:13
(UTC+00:00)

Cosmos 2263 Rocket - Pass Details

Date: 22 September 2024
Orbit: 821 x 849 km, 71.0° (Epoch: 12 October)

Event Time Altitude Azimuth Distance (km) Brightness Sun altitude
Rises 03:31:00 0° 198° (SSW) 3,367 5.0 -10.1°
Reaches altitude 10° 03:33:26 10° 195° (SSW) 2,441 4.3 -9.7°
Maximum altitude 03:38:59 67° 114° (ESE) 914 2.6 -8.8°
Drops below altitude 10° 03:44:36 10° 34° (NNE) 2,476 5.3 -8.0°
Sets 03:47:05 0° 32° (NNE) 3,418 6.0 -7.6°
